This demonstration page uses our WeatherBlox Daily Observations layout. Learn more.

Left ArrowRight Arrow

Hourly Observations for September 26, 2022

Temp ( °F °C ) Dew Point ( °F °C ) Humidity (%) Winds ( mph kmh ) Pressure ( in mb ) Visibility ( mi km ) Precip ( " mm )
12:51 am 00:51 Clear 72 22.2 49 9.4 44 44 ESE 6 9 29.89 1012 10 16 0.00 0.00
1:51 am 01:51 Clear 73 22.8 49 9.4 42 42 SSE 10 17 29.90 1012 10 16 0.00 0.00
2:51 am 02:51 Clear 72 22.2 50 10 46 46 SSE 7 11 29.89 1012 10 16 0.00 0.00
3:51 am 03:51 Clear 70 21.1 50 10 49 49 ESE 9 15 29.91 1013 10 16 0.00 0.00
4:51 am 04:51 Clear 71 21.7 50 10 47 47 E 8 13 29.93 1013 10 16 0.00 0.00
5:51 am 05:51 Clear 72 22.2 50 10 46 46 ESE 10 17 29.95 1014 10 16 0.00 0.00
6:51 am 06:51 Sunny 71 21.7 51 10.6 49 49 SE 9 15 29.98 1015 10 16 0.00 0.00
7:51 am 07:51 Sunny 74 23.3 52 11.1 46 46 SE 8 13 30.00 1016 10 16 0.00 0.00
8:51 am 08:51 Sunny 79 26.1 54 12.2 42 42 SSE 9 15 30.00 1016 10 16 0.00 0.00
9:51 am 09:51 Sunny 83 28.3 57 13.9 41 41 SSE 12 19 29.99 1016 10 16 0.00 0.00
10:51 am 10:51 Mostly Sunny 88 31.1 57 13.9 35 35 SSE 17 28 29.97 1015 10 16 0.00 0.00
11:51 am 11:51 Mostly Sunny 89 31.7 56 13.3 33 33 SE 15 24 29.95 1014 10 16 0.00 0.00
12:51 pm 12:51 Sunny 90 32.2 54 12.2 30 30 ESE 16 26 29.93 1014 10 16 0.00 0.00
1:51 pm 13:51 Sunny 90 32.2 54 12.2 30 30 ESE 18 30 29.90 1013 10 16 0.00 0.00
2:51 pm 14:51 Sunny 90 32.2 54 12.2 30 30 SE 15 24 29.88 1012 10 16 0.00 0.00
3:51 pm 15:51 Sunny 90 32.2 54 12.2 30 30 ESE 14 22 29.88 1012 10 16 0.00 0.00
4:51 pm 16:51 Sunny 88 31.1 53 11.7 30 30 ESE 14 22 29.89 1012 10 16 0.00 0.00
5:51 pm 17:51 Sunny 86 30 53 11.7 32 32 ESE 14 22 29.89 1012 10 16 0.00 0.00
6:51 pm 18:51 Clear 83 28.3 54 12.2 37 37 SE 12 19 29.91 1013 10 16 0.00 0.00
7:51 pm 19:51 Clear 80 26.7 54 12.2 41 41 E 7 11 29.93 1014 10 16 0.00 0.00
8:51 pm 20:51 Partly Cloudy 80 26.7 56 13.3 44 44 ESE 10 17 29.95 1014 10 16 0.00 0.00
9:51 pm 21:51 Clear 76 24.4 55 12.8 48 48 SE 6 9 29.96 1015 10 16 0.00 0.00
10:51 pm 22:51 Clear 72 22.2 55 12.8 55 55 SSE 6 9 29.96 1015 10 16 0.00 0.00
11:51 pm 23:51 Clear 70 21.1 55 12.8 59 59 ESE 6 9 29.96 1015 10 16 0.00 0.00

Powered by AerisWeather